TimeAKDT,TemperatureF,Dew PointF,Humidity,Sea Level PressureIn,VisibilityMPH,Wind Direction,Wind SpeedMPH,Gust SpeedMPH,PrecipitationIn,Events,Conditions,WindDirDegrees,DateUTC
12:53 AM,46.0,44.1,93,30.26,7.0,ESE,21.9,-,0.06,Rain,Light Rain,120,2013-05-04 08:53:00
1:53 AM,46.9,44.1,90,30.25,8.0,ESE,20.7,-,0.05,Rain,Light Rain,120,2013-05-04 09:53:00
2:53 AM,46.0,44.1,93,30.23,6.0,ESE,18.4,-,0.06,Rain,Rain,110,2013-05-04 10:53:00
3:53 AM,46.0,44.1,93,30.23,4.0,ESE,20.7,-,0.13,Rain,Rain,120,2013-05-04 11:53:00
4:53 AM,46.0,44.1,93,30.23,4.0,ESE,20.7,-,0.10,Rain,Light Rain,110,2013-05-04 12:53:00
5:53 AM,46.0,45.0,96,30.24,2.5,ESE,20.7,32.2,0.03,Rain,Light Rain,120,2013-05-04 13:53:00
6:43 AM,46.9,44.1,90,30.23,3.0,ESE,24.2,29.9,0.01,Rain,Light Rain,120,2013-05-04 14:43:00
6:53 AM,46.9,44.1,90,30.24,4.0,ESE,21.9,35.7,0.01,Rain,Light Rain,120,2013-05-04 14:53:00
7:53 AM,46.9,44.1,90,30.25,5.0,ESE,21.9,-,0.00,Rain,Light Rain,110,2013-05-04 15:53:00
8:02 AM,46.9,44.1,90,30.25,5.0,East,21.9,-,0.00,Rain,Light Rain,100,2013-05-04 16:02:00
8:53 AM,46.9,45.0,93,30.26,4.0,ESE,13.8,-,0.00,Rain,Light Rain,110,2013-05-04 16:53:00
9:09 AM,46.9,45.0,93,30.25,2.0,ESE,15.0,-,0.02,Rain,Light Rain,120,2013-05-04 17:09:00
9:51 AM,48.2,44.6,87,30.24,3.0,East,16.1,-,0.03,Rain,Light Rain,100,2013-05-04 17:51:00
9:53 AM,48.0,45.0,89,30.24,3.0,ESE,16.1,-,0.03,Rain,Light Rain,110,2013-05-04 17:53:00
10:19 AM,48.0,45.0,89,30.25,8.0,SE,13.8,-,0.00,,Overcast,130,2013-05-04 18:19:00
10:53 AM,48.9,46.0,90,30.24,8.0,ESE,18.4,25.3,0.00,,Overcast,120,2013-05-04 18:53:00
11:53 AM,48.0,45.0,89,30.25,8.0,ESE,12.7,-,N/A,,Overcast,120,2013-05-04 19:53:00
12:53 PM,48.0,45.0,89,30.26,8.0,ESE,17.3,-,0.00,Rain,Light Rain,120,2013-05-04 20:53:00
1:53 PM,48.0,46.0,93,30.25,8.0,ESE,13.8,-,0.00,,Overcast,120,2013-05-04 21:53:00
2:29 PM,48.9,46.0,90,30.24,8.0,ESE,12.7,-,0.00,,Overcast,120,2013-05-04 22:29:00
2:53 PM,48.9,45.0,86,30.24,9.0,ESE,16.1,23.0,0.00,Rain,Light Rain,120,2013-05-04 22:53:00
3:29 PM,48.9,45.0,86,30.23,9.0,ESE,19.6,26.5,0.00,,Overcast,120,2013-05-04 23:29:00
3:53 PM,48.9,45.0,86,30.22,9.0,ESE,25.3,28.8,0.00,,Overcast,120,2013-05-04 23:53:00
4:53 PM,48.9,44.1,83,30.21,9.0,ESE,20.7,31.1,N/A,,Overcast,110,2013-05-05 00:53:00
5:53 PM,48.9,44.1,83,30.22,8.0,SE,13.8,-,0.00,Rain,Light Rain,130,2013-05-05 01:53:00
6:53 PM,48.0,45.0,89,30.22,6.0,ESE,18.4,-,0.01,Rain,Light Rain,120,2013-05-05 02:53:00
7:53 PM,48.0,45.0,89,30.23,2.0,ESE,9.2,-,0.01,Rain,Rain,120,2013-05-05 03:53:00
8:53 PM,46.9,45.0,93,30.23,3.0,Calm,Calm,-,0.17,Rain,Rain,0,2013-05-05 04:53:00
9:53 PM,46.0,45.0,96,30.24,4.0,ENE,6.9,-,0.12,Rain,Light Rain,70,2013-05-05 05:53:00
10:53 PM,45.0,44.1,97,30.24,5.0,East,12.7,-,0.01,,Overcast,100,2013-05-05 06:53:00
11:53 PM,45.0,44.1,97,30.22,4.0,East,11.5,-,0.00,Rain,Light Rain,100,2013-05-05 07:53:00